Location: Amsterdam
(30.7274°N, 84.4357°W)
Time: 21:20:22
(UTC+00:00)

Explorer 11/Cluster Stage 4 - Pass Details

Date: 17 February 2026
Orbit: 463 x 1176 km, 28.8° (Epoch: 5 March)

Event Time Altitude Azimuth Distance (km) Brightness Sun altitude
Rises 23:51:37 0° 265° (W) 2,506 11.8 -5.9°
Reaches altitude 10° 23:54:10 10° 247° (WSW) 1,677 9.9 -6.5°
Maximum altitude 23:56:55 19° 200° (SSW) 1,285 8.1 -7.1°
Drops below altitude 10° 23:59:55 10° 154° (SSE) 1,856 8.3 -7.7°
Sets 00:02:56 0° 137° (SE) 2,883 9.2 -8.3°
